View from above orbital plane
|
View from above satellite
|
Ground track
|
The orbit data is extracted from the following two-line orbital elements,
1 31708U 07027C 20366.15263833 0.00000000 00000-0 00000-0 0 06
2 31708 63.3660 25.1611 0302798 20.4781 339.5219 13.40810767 01
Epoch (UTC): | 31 December 2020 03:39:47 |
Eccentricity: | 0.0302798 |
inclination: | 63.3660° |
perigee height: | 879 km |
apogee height: | 1333 km |
right ascension of ascending node: | 25.1611° |
argument of perigee: | 20.4781° |
revolutions per day: | 13.40810767 |
mean anomaly at epoch: | 339.5219° |
orbit number at epoch: | 0 |
The dashed part of the orbit path shows where the satellite is in the earth's shadow,
|
|